Regional Weather Roundup
Issued by NWS

Home | Current Version | Previous Version | Text Only | Print | Product List | Glossary On
Versions: 1 2 3 4 5 6 7 8 9 10 11 12 13 14 15 16 17 18 19 20 21 22 23 24 25 26 27 28 29 30 31 32 33 34 35 36 37 38 39 40 41 42 43 44 45 46 47 48 49 50
000
ASUS43 KMPX 220201
RWRMN
WEATHER ROUNDUP FOR MINNESOTA
NATIONAL WEATHER SERVICE TWIN CITIES/CHANHASSEN MN
800 PM CST SUN DEC 21 2014


NOTE: "FAIR" INDICATES FEW OR NO CLOUDS BELOW 12,000 FEET WITH NO
SIGNIFICANT WEATHER AND/OR OBSTRUCTIONS TO VISIBILITY. N/A MEANS
CURRENT SKY AND/OR WEATHER CONDITIONS ARE NOT AVAILABLE.

MNZ060>063-068>070-220300-
   Twin Cities Metro

CITY           SKY/WX    TMP DP  RH WIND       PRES   REMARKS
TWIN CITIES    LGT RAIN  37  35  92 SE9       29.74S FOG
ST PAUL        LGT RAIN  37  36  96 SE10      29.76S FOG
CRYSTAL        LGT RAIN  38  36  92 S9        29.72S FOG
LAKEVILLE      LGT RAIN  36  36 100 S8        29.73S
EDEN PRAIRIE   CLOUDY    38  36  92 S14       29.72S FOG
SOUTH ST PAUL  CLOUDY    37  36  96 S6        29.75S FOG
LAKE ELMO      DRIZZLE   36  36 100 S10       29.75F
$$
MNZ001>005-007-008-013>017-022>024-027-028-220300-
   Northwest Minnesota

CITY           SKY/WX    TMP DP  RH WIND       PRES   REMARKS
BEMIDJI        CLOUDY    32  31  96 SE8       29.62F WCI  25
HALLOCK        CLOUDY    32  30  93 CALM      29.59F
ROSEAU         CLOUDY    32  27  80 SE10      29.62F WCI  24
WARROAD        CLOUDY    30  28  93 SE8       29.64S WCI  23
THIEF RVR FALL CLOUDY    32  30  93 SE10      29.60S WCI  24
CROOKSTON      CLOUDY    34  30  86 SE7       29.61R WCI  28
FOSSTON        CLOUDY    30  30 100 SE9       29.60R WCI  22
DETROIT LAKES  CLOUDY    34  32  93 SE17      29.59S FOG     WCI  23
MOORHEAD       CLOUDY    36  36 100 SE15      29.58S
PARK RAPIDS    CLOUDY    33  32  96 SE13      29.61F FOG     WCI  24
MAHNOMEN       CLOUDY    33  31  96 SE10      29.58S WCI  24
$$
MNZ006-009>011-018-025>026-220300-
   North Central Minnesota

CITY           SKY/WX    TMP DP  RH WIND       PRES   REMARKS
BAUDETTE       CLOUDY    32  29  88 SE6       29.64F WCI  26
FLAG ISLAND    CLOUDY    30  28  93 S12       29.64S FOG     WCI  21
INTL FALLS     CLOUDY    32  30  92 SE9       29.68F FOG     WCI  24
WASKISH        CLOUDY    34  32  93 SE6       29.65S WCI  29
BIG FORK       CLOUDY    34  30  86 SE3       29.67F FOG
LONGVILLE      CLOUDY    32  32 100 SE7       29.65F FOG     WCI  26
GRAND RAPIDS   CLOUDY    32  30  93 SE8       29.67F WCI  25
CRANE LAKE     CLOUDY    30  30 100 CALM      29.73F
ORR            CLOUDY    30  28  93 SE5       29.68S WCI  25
COOK           CLOUDY    32  30  93 CALM      29.71S
WALKER         CLOUDY    32  31  98 SE9       29.64S WCI  24
$$
MNZ012-019>021-037-220300-
   Northeast Minnesota

CITY           SKY/WX    TMP DP  RH WIND       PRES   REMARKS
DULUTH         FOG       33  31  92 SE8       29.72S VSB 1   WCI  26
ELY            CLOUDY    30  30 100 SE5       29.72F FOG     WCI  25
HIBBING        CLOUDY    33  30  88 SE8       29.70F FOG     WCI  26
EVELETH        CLOUDY    32  32 100 SE5       29.72F FOG     WCI  27
DULUTH HARBOR  CLOUDY    36  32  87 CALM      29.76F
TWO HARBORS    CLOUDY    36  30  80 SE5       29.74S
SILVER BAY     CLOUDY    34  34 100 CALM      29.75S FOG
GRAND MARAIS     N/A     36  34  92 S15       29.81F
G MARAIS ARPRT MIX PCPN  30  27  86 S9        29.77S VSB<1/4 WCI  22
$$
MNZ029>031-032-039>041-046>048-054>057-064-220300-
   West Central Minnesota

CITY           SKY/WX    TMP DP  RH WIND       PRES   REMARKS
FERGUS FALLS   CLOUDY    34  34 100 SE15      29.61S FOG     WCI  24
WHEATON        CLOUDY    32  30  93 SE10      29.59F FOG     WCI  24
MORRIS         FOG       36  34  93 SE13      29.59S VSB 1/4
ALEXANDRIA     FOG       34  33  96 SE10      29.61F VSB 1/2 WCI  26
ELBOW LAKE     FOG       33  33 100 SE16      29.59S VSB 3/4 WCI  23
WADENA         FOG       32  32 100 SE9       29.62S VSB 1   WCI  24
GLENWOOD       FOG       34  34 100 SE12      29.62F VSB 1/2 WCI  25
APPLETON       CLOUDY    37  36  93 S9        29.60R FOG
BENSON         CLOUDY    36  36 100 S10       29.61S FOG
ORTONVILLE     CLOUDY    36  32  87 SE9       29.57S FOG
MADISON        PTCLDY    39  37  93 S9        29.58F FOG
WILLMAR        FOG       36  36 100 SE13      29.65R VSB 1/2
$$
MNZ033>034-036-042>043-049>051-058-059-220300-
   Central Minnesota

CITY           SKY/WX    TMP DP  RH WIND       PRES   REMARKS
ST CLOUD       CLOUDY    37  34  89 SE12      29.68S FOG
SAUK CENTRE    FOG       33  33 100 SE8       29.64S VSB 1/2 WCI  26
PAYNESVILLE    FOG       33  33 100 E12       29.65S VSB 1/2 WCI  24
AITKIN         CLOUDY    36  30  80 SE7       29.67S HAZE
PINE RIVER     CLOUDY    34  34 100 SE6       29.69S FOG     WCI  29
BRAINERD       CLOUDY    33  33 100 SE9       29.67S FOG     WCI  25
STAPLES        CLOUDY    34  34 100 SE7       29.64S FOG     WCI  28
LONG PRAIRIE   MIX PCPN  32  32 100 SE9       29.65R VSB 3/4 WCI  24
LITTLE FALLS   CLOUDY    34  32  93 SE6       29.67S FOG     WCI  29
LITCHFIELD     FOG       37  37 100 SE6       29.67S VSB 1
BUFFALO        DRIZZLE   37  35  94 SE9       29.71S
MAPLE LAKE     CLOUDY    37  37  99 SE7       29.70S FOG
$$
MNZ037-044-045-052-053-220300-
   East Central Minnesota

CITY           SKY/WX    TMP DP  RH WIND       PRES   REMARKS
PRINCETON      CLOUDY    37  36  93 SE7       29.70F FOG
MORA           CLOUDY    32  30  93 SE6       29.73F WCI  26
CAMBRIDGE      CLOUDY    37  30  75 SE6       29.70F HAZE
RUSH CITY      CLOUDY    34  33  97 S3        29.74S FOG
MOOSE LAKE     CLOUDY    34  32  93 S6        29.70S WCI  29
HINCKLEY       CLOUDY    34  34 100 CALM      29.73S FOG
CLOQUET        CLOUDY    34  32  93 SE3       29.72S
MCGREGOR       CLOUDY    34  32  93 SE8       29.70S WCI  27
$$
MNZ071>073-080-081-089-090-097-098-220300-
   Southwest Minnesota

CITY           SKY/WX    TMP DP  RH WIND       PRES   REMARKS
MONTEVIDEO     CLOUDY    36  36 100 S9        29.62S FOG
GRANITE FALLS  CLOUDY    36  35  97 SE12      29.64S FOG
CANBY          CLOUDY    37  36  94 SE7       29.58F FOG
MARSHALL       CLOUDY    37  34  87 S20G26    29.59S
REDWOOD FALLS  CLOUDY    38  36  92 S14       29.64S FOG
OLIVIA         CLOUDY    36  36 100 S13       29.64S FOG
PIPESTONE      DRIZZLE   36  36 100 S17       29.57F
WINDOM         CLOUDY    37  37 100 S18       29.64S FOG
WORTHINGTON    CLOUDY    37 -11  12 S16       29.63F
JACKSON        CLOUDY    37  36  93 S16G26    29.66F FOG
TRACY          CLOUDY    38  37  94 S21G26    29.61R FOG
SLAYTON        CLOUDY    36  36 100 S20G31    29.60F FOG
$$
MNZ065>067-074>077-082>085-091>093-220300-
   South Central Minnesota

CITY           SKY/WX    TMP DP  RH WIND       PRES   REMARKS
MANKATO        CLOUDY    37  34  87 S13       29.71S
NEW ULM        CLOUDY    37  37 100 S16G22    29.68S FOG
ST JAMES       CLOUDY    39  37  93 S15       29.68  FOG
FAIRMONT       CLOUDY    37  34  87 S16       29.68S
GLENCOE        CLOUDY    38  38 100 S8G17     29.68F FOG
FARIBAULT      RAIN      37  36  93 S12       29.74S
OWATONNA       LGT RAIN  37  36  93 S18G25    29.74S
WASECA         RAIN      36  36 100 S15G21    29.74S
ALBERT LEA     CLOUDY    37  37 100 S14       29.74S FOG
$$
MNZ078>079-086>088-094>096-220300-
   Southeast Minnesota

CITY           SKY/WX    TMP DP  RH WIND       PRES   REMARKS
ROCHESTER      LGT RAIN  37  35  92 S24G32    29.76S
RED WING       DRIZZLE   39  36  87 S5        29.77S
STANTON        RAIN      38  35  88 S10G16    29.74S
DODGE CENTER   CLOUDY    37  37 100 S21G29    29.74R FOG
WINONA         CLOUDY    39  36  87 S9G18     29.82S
AUSTIN         CLOUDY    37  36  93 S13G20    29.76S FOG
PRESTON        CLOUDY    35  34  96 S18G26    29.79S FOG     WCI  24
$$
ABBREVIATIONS USED IN REMARKS
   TC - TEMPERATURES IN CELSIUS
  WCI - WIND CHILL INDEX
   HX - HEAT INDEX
  VSB - VISIBILITY
$$



USA.gov is the U.S. government's official web portal to all federal, state and local government web resources and services.